Wind_Speed
13 14 21 23 19 10 5 7 6 4 3 4 9 7 8 7 7 9 9 3 2 7 5 3 4 5 3 4 3 5 4 3 3 5 7 7 9 9 9 7 6 5 3
10 10 16 17 19 15 11 8 4 2 6 7 10 7 8 8 5 8 7 3 2 3 6 8 6 5 4 3 4 2 2 1 2 3 5 6 8 9 10 9 8 7 7
6 8 10 13 15 16 15 14 11 11 12 12 10 11 13 14 13 5 5 5 3 1 2 8 8 8 5 3 4 4 2 1 2 3 4 5 7 10 11 11 11 9 8
3 6 8 12 11 15 15 14 14 15 14 15 13 14 15 13 13 11 7 3 6 4 3 3 7 10 8 8 4 3 5 4 7 9 8 8 7 6 10 11 10 11 11
3 5 7 10 10 12 12 12 13 12 11 11 13 15 12 10 11 10 7 5 5 5 5 3 1 8 10 8 4 4 5 6 10 15 12 12 11 11 9 9 12 11 13
2 4 5 7 7 8 8 7 9 10 9 9 9 11 12 10 8 7 5 4 3 1 3 3 1 3 4 3 2 3 4 4 7 2 6 9 14 15 13 12 11 14 14
2 4 6 6 6 7 6 6 7 6 6 7 9 10 13 11 8 6 5 4 2 2 3 3 2 1 3 3 3 3 5 5 4 2 4 6 6 13 14 15 18 17 18
5 6 6 5 7 6 5 5 5 5 5 7 12 12 15 12 11 9 8 6 5 3 2 3 3 4 3 5 5 6 7 8 8 7 8 10 9 8 13 14 15 16 19
5 6 6 6 7 6 4 3 4 4 5 8 11 12 13 13 12 12 12 11 7 5 4 4 4 5 7 8 9 10 10 10 10 11 12 12 13 13 12 12 14 18 16
5 6 5 5 5 4 3 1 2 2 4 6 7 9 9 8 8 9 10 10 10 9 6 7 8 8 8 8 10 11 11 12 13 14 14 15 16 17 18 19 18 18 18
9 6 5 4 4 3 1 2 0 3 3 6 4 5 5 6 7 8 9 10 9 9 5 5 6 9 9 9 9 10 12 12 12 14 15 16 17 17 18 20 20 21 21
13 7 4 4 2 4 4 3 5 8 7 7 5 3 6 8 8 9 9 9 9 8 8 7 6 7 9 11 12 14 15 16 16 17 16 16 17 18 21 20 21 21 22
13 9 5 3 2 2 2 4 6 10 10 6 3 1 5 7 10 12 10 11 10 8 8 9 9 10 15 16 17 19 19 20 21 22 21 21 22 22 22 23 21 20 22
12 10 9 4 0 1 2 5 6 6 6 4 1 3 7 10 13 12 11 10 9 10 8 12 14 11 16 21 24 24 21 20 22 22 22 24 24 22 20 21 24 23 24
12 11 11 7 4 4 4 4 5 6 4 4 4 4 4 11 15 18 16 13 6 13 19 15 15 15 16 19 21 16 13 16 18 18 19 20 18 20 22 23 24 26 29
13 15 14 12 10 9 7 6 6 5 7 5 6 7 8 15 17 21 20 17 15 12 19 23 19 17 14 16 17 18 16 18 17 17 19 21 21 22 23 23 24 26 28
17 17 17 17 14 13 12 10 9 8 10 10 12 14 11 14 18 20 21 20 19 13 11 18 23 16 9 11 14 16 17 19 19 19 20 22 24 24 24 24 25 26 27
18 20 20 19 18 18 17 15 14 12 14 15 17 19 21 24 18 21 20 17 15 12 10 3 5 6 6 9 13 15 17 18 18 18 20 20 22 23 25 25 27 28 28
18 19 19 20 22 23 23 23 21 16 18 20 23 25 28 19 12 18 19 15 12 11 8 8 7 5 7 10 13 16 17 18 20 20 21 21 22 23 24 24 25 25 25
16 18 17 17 20 25 25 28 29 22 20 23 26 32 31 22 24 16 16 13 12 12 8 9 12 11 10 12 15 18 21 22 22 22 23 23 23 24 26 27 27 27 27
19 20 20 19 20 23 27 31 33 30 27 25 26 30 33 29 24 18 17 15 16 16 17 13 14 15 15 14 15 17 19 22 23 23 23 23 25 26 28 29 30 30 30
23 25 25 28 28 27 30 32 32 33 33 31 29 32 41 37 33 29 19 18 20 21 23 21 22 22 21 22 21 19 19 19 20 22 22 24 25 26 26 27 29 30 31
25 20 20 24 22 23 27 30 31 33 34 34 34 37 48 49 35 29 29 21 22 25 23 25 24 25 24 23 24 23 22 21 21 24 24 21 23 22 24 26 27 28 30
35 26 22 22 21 20 23 23 28 31 28 31 35 38 50 32 27 30 29 24 24 28 26 26 25 27 27 26 25 25 25 25 26 26 25 23 20 21 22 24 25 26 27
33 31 24 25 24 27 25 27 31 33 35 33 37 43 47 48 52 37 28 30 26 28 27 27 27 26 28 28 26 25 26 26 27 27 25 24 21 19 23 26 26 28 30
31 33 29 31 32 33 34 34 36 38 37 37 33 40 44 34 34 25 28 32 31 29 27 28 28 27 29 29 29 28 29 30 30 30 28 25 25 25 28 29 30 32 34
Wind_Direction
25 29 35 29 25 24 57 135 170 193 356 26 45 36 39 34 15 21 27 346 219 192 187 191 160 154 149 158 150 113 104 106 158 196 206 209 205 206 199 199 202 189 172
15 27 39 25 35 55 70 110 116 50 54 82 54 52 43 29 27 39 28 39 336 233 243 222 231 241 215 194 180 150 120 102 162 185 216 224 231 230 224 218 213 213 200
2 27 39 37 46 52 68 83 82 82 83 83 73 75 63 50 47 78 41 64 75 230 181 213 253 249 245 240 252 265 237 277 309 283 252 240 242 242 240 234 231 224 224
21 46 56 58 50 59 65 74 81 84 81 85 82 62 66 68 69 64 51 67 79 68 92 221 247 236 233 240 228 271 264 282 288 274 281 274 263 264 251 247 241 243 236
44 57 57 64 63 66 65 65 68 74 79 82 74 71 68 60 84 84 73 49 74 71 82 80 190 222 248 240 263 247 251 291 290 268 268 266 263 259 255 250 247 240 245
69 78 55 65 66 71 71 67 63 66 66 62 56 67 81 75 71 55 44 51 54 36 64 32 55 126 183 215 227 229 254 301 344 327 242 275 275 255 258 263 250 246 243
159 95 71 67 73 65 65 64 75 73 77 60 69 73 66 58 54 46 38 20 14 4 7 7 347 233 185 204 223 250 266 293 316 324 291 310 317 267 253 259 271 268 242
87 84 85 89 94 86 75 68 71 65 65 70 76 55 50 37 30 20 4 336 320 321 323 321 313 289 275 258 260 273 281 284 290 294 292 296 305 310 255 254 264 267 267
107 110 104 102 93 85 79 100 101 98 83 86 70 57 45 43 37 25 13 358 353 281 271 282 258 258 258 257 268 266 268 278 281 281 283 283 282 280 281 274 269 272 275
145 122 121 120 103 94 85 77 58 80 104 88 70 53 42 48 37 32 20 10 360 356 321 271 266 260 268 273 279 285 294 300 304 297 284 275 268 265 261 261 262 268 280
157 158 132 138 143 148 95 34 343 165 117 93 89 68 15 6 352 354 350 349 349 337 336 336 310 276 281 292 300 295 288 285 284 281 286 285 278 272 271 268 262 256 256
172 168 150 177 144 139 115 76 102 127 131 132 124 60 11 357 342 333 331 321 310 312 312 306 298 284 267 267 271 271 275 280 282 281 280 281 283 282 272 272 269 263 259
181 175 189 181 163 149 176 139 123 130 136 146 148 55 337 330 343 329 309 327 280 274 282 288 290 288 300 290 291 286 278 281 287 287 284 282 282 286 278 262 262 262 262
192 193 191 183 355 303 223 153 146 153 171 168 348 301 309 323 336 340 358 333 267 244 260 267 267 262 255 270 278 279 274 275 275 280 281 280 280 280 272 264 255 254 257
205 212 218 209 236 279 245 196 183 184 214 226 247 282 317 342 352 348 4 357 304 258 247 254 266 261 243 255 266 288 289 281 284 284 282 279 278 275 273 265 257 256 263
219 219 223 224 232 249 266 248 242 235 230 260 265 288 315 350 340 349 348 345 330 293 247 240 243 256 251 252 276 279 279 283 282 282 280 281 281 282 280 274 268 267 269
235 232 234 234 240 250 259 261 263 272 270 262 277 294 309 337 326 339 344 340 336 321 284 245 234 232 248 271 285 284 285 286 285 286 284 284 284 285 283 282 278 274 273
244 243 244 249 256 262 264 263 269 270 279 281 285 289 281 294 303 307 337 331 340 351 6 360 207 221 259 276 288 291 291 290 292 294 294 293 291 292 294 291 285 282 280
243 243 248 249 257 263 272 276 276 278 287 289 287 290 318 315 313 313 332 330 326 330 341 328 303 282 282 288 291 293 292 292 295 299 304 301 301 301 301 297 294 290 284
268 262 264 274 273 272 269 271 276 287 294 296 300 298 309 308 297 304 316 321 301 296 296 303 294 285 280 287 292 296 296 300 298 298 299 301 302 303 300 298 298 294 290
243 254 258 260 263 274 269 267 276 285 289 294 298 305 306 302 311 302 304 315 301 292 296 297 293 301 303 292 287 288 290 286 289 293 297 297 294 291 293 293 291 291 292
250 251 255 258 259 253 257 269 275 278 282 285 288 293 303 291 300 296 298 305 303 301 302 309 311 316 315 311 310 298 290 286 285 286 286 287 290 293 294 292 292 293 293
251 251 259 262 260 259 259 263 269 269 276 283 285 296 308 298 280 277 289 298 299 294 296 298 302 306 308 303 301 300 300 297 296 295 294 295 294 294 293 293 295 297 297
260 246 242 253 255 254 255 260 268 272 273 273 279 297 294 297 265 291 281 290 294 286 284 289 295 300 304 305 301 300 300 300 303 302 298 292 290 295 296 302 304 302 300
269 259 244 249 254 257 254 256 261 269 272 273 285 291 289 283 280 282 277 283 291 284 280 286 290 292 297 299 297 297 297 301 300 298 295 289 290 294 301 302 302 304 301
262 247 247 252 254 264 262 260 262 264 272 279 284 297 297 284 272 268 279 285 287 280 274 279 288 291 292 298 300 298 295 297 303 305 302 300 296 296 303 305 305 304 303
Height
5937 5937 5933 5930 5928 5925 5924 5925 5927 5927 5927 5928 5929 5928 5927 5925 5924 5923 5923 5924 5925 5925 5925 5926 5926 5926 5926 5927 5926 5926 5926 5926 5925 5926 5927 5927 5927 5927 5929 5929 5930 5931 5931
5939 5938 5936 5934 5930 5927 5926 5927 5928 5928 5929 5930 5929 5929 5927 5925 5925 5923 5924 5924 5925 5926 5926 5926 5927 5928 5927 5927 5927 5927 5927 5927 5927 5927 5927 5927 5927 5928 5928 5929 5929 5930 5930
5941 5939 5938 5935 5933 5931 5930 5929 5929 5930 5931 5930 5930 5931 5928 5926 5925 5925 5926 5925 5924 5924 5924 5926 5927 5928 5929 5929 5928 5929 5928 5928 5929 5929 5928 5927 5927 5927 5928 5928 5929 5930 5930
5942 5940 5939 5936 5935 5934 5933 5932 5932 5934 5934 5933 5933 5931 5930 5929 5927 5927 5927 5926 5925 5925 5924 5925 5925 5927 5928 5928 5928 5928 5928 5929 5928 5928 5928 5928 5928 5928 5928 5928 5929 5930 5930
5941 5940 5939 5938 5938 5936 5935 5935 5935 5936 5936 5934 5933 5932 5931 5930 5929 5929 5928 5927 5925 5926 5926 5925 5925 5926 5926 5927 5927 5927 5928 5928 5927 5925 5926 5927 5927 5927 5927 5927 5927 5928 5929
5941 5941 5939 5938 5938 5938 5937 5937 5936 5936 5936 5937 5936 5935 5934 5933 5932 5931 5930 5929 5928 5927 5926 5926 5926 5926 5927 5927 5928 5927 5927 5927 5926 5922 5925 5926 5925 5925 5926 5925 5925 5926 5927
5942 5942 5940 5939 5939 5939 5939 5939 5939 5939 5940 5940 5938 5936 5934 5933 5932 5932 5931 5930 5929 5928 5927 5927 5927 5927 5927 5926 5927 5927 5927 5926 5925 5924 5924 5925 5923 5923 5923 5924 5924 5924 5924
5942 5942 5941 5941 5940 5939 5940 5940 5940 5940 5941 5940 5939 5937 5935 5934 5932 5931 5930 5930 5929 5928 5928 5927 5927 5926 5926 5926 5925 5925 5925 5925 5925 5924 5923 5922 5922 5921 5921 5921 5920 5921 5921
5942 5942 5942 5941 5940 5939 5939 5940 5939 5938 5939 5938 5937 5938 5936 5933 5931 5930 5929 5927 5927 5927 5927 5927 5926 5925 5924 5924 5924 5923 5923 5923 5922 5922 5921 5920 5920 5918 5918 5917 5917 5917 5916
5944 5943 5942 5941 5940 5938 5937 5937 5936 5937 5937 5937 5936 5936 5936 5934 5933 5930 5929 5927 5925 5925 5925 5925 5924 5923 5923 5923 5923 5923 5922 5921 5921 5920 5919 5918 5917 5915 5914 5913 5913 5913 5913
5944 5944 5942 5941 5939 5938 5937 5937 5936 5936 5938 5937 5937 5937 5936 5934 5933 5931 5929 5928 5925 5924 5922 5922 5922 5921 5921 5921 5920 5919 5918 5917 5916 5914 5914 5913 5911 5910 5908 5907 5907 5907 5906
5944 5944 5942 5942 5941 5940 5938 5936 5935 5935 5936 5936 5937 5936 5933 5933 5930 5930 5928 5926 5923 5922 5920 5919 5919 5919 5917 5916 5915 5914 5912 5912 5911 5910 5909 5908 5907 5906 5905 5903 5902 5902 5900
5945 5943 5943 5943 5942 5941 5939 5938 5937 5936 5935 5936 5935 5934 5933 5932 5931 5930 5928 5925 5922 5921 5919 5917 5917 5916 5915 5914 5913 5911 5910 5909 5908 5907 5905 5904 5902 5901 5899 5897 5897 5896 5895
5944 5943 5943 5943 5943 5942 5941 5939 5938 5937 5937 5936 5934 5932 5932 5932 5931 5929 5925 5922 5919 5918 5917 5915 5914 5915 5912 5911 5909 5907 5906 5904 5903 5901 5900 5897 5895 5894 5893 5892 5891 5890 5888
5942 5942 5942 5942 5942 5942 5941 5940 5939 5937 5937 5936 5933 5932 5931 5929 5927 5925 5922 5918 5916 5915 5913 5912 5911 5910 5909 5908 5905 5904 5903 5900 5899 5897 5895 5893 5890 5888 5887 5886 5885 5885 5884
5941 5940 5940 5941 5941 5939 5940 5940 5939 5938 5936 5935 5932 5930 5927 5924 5922 5920 5918 5915 5911 5907 5906 5906 5905 5905 5905 5903 5902 5899 5897 5896 5894 5892 5890 5889 5888 5887 5884 5882 5881 5880 5879
5939 5939 5938 5938 5939 5939 5939 5937 5937 5937 5936 5934 5931 5927 5925 5922 5920 5916 5914 5912 5908 5902 5899 5897 5900 5901 5901 5899 5898 5897 5894 5893 5892 5890 5887 5885 5884 5882 5880 5879 5877 5876 5874
5935 5936 5937 5939 5940 5939 5938 5937 5935 5935 5933 5930 5927 5925 5921 5918 5918 5915 5912 5910 5907 5905 5902 5900 5899 5898 5897 5895 5894 5892 5890 5888 5885 5883 5882 5880 5877 5876 5876 5875 5873 5872 5869
5932 5933 5933 5934 5935 5934 5936 5935 5933 5933 5931 5928 5924 5922 5922 5911 5911 5912 5909 5907 5904 5902 5900 5900 5898 5895 5892 5890 5888 5885 5883 5881 5879 5877 5876 5874 5872 5870 5868 5866 5865 5863 5861
5931 5931 5933 5933 5933 5931 5930 5928 5927 5930 5929 5927 5924 5919 5917 5913 5903 5904 5906 5904 5902 5899 5896 5896 5896 5892 5887 5885 5883 5880 5878 5876 5874 5871 5869 5867 5865 5863 5860 5856 5854 5854 5853
5921 5924 5927 5926 5926 5930 5927 5923 5923 5925 5924 5924 5922 5919 5918 5914 5905 5902 5901 5900 5899 5897 5894 5891 5890 5888 5886 5881 5880 5877 5873 5870 5868 5866 5864 5863 5860 5855 5851 5848 5846 5845 5844
5912 5913 5918 5918 5919 5917 5918 5919 5919 5918 5919 5920 5919 5916 5914 5910 5905 5901 5899 5895 5894 5893 5891 5888 5887 5885 5882 5880 5877 5875 5872 5868 5864 5862 5858 5855 5852 5850 5847 5844 5841 5838 5837
5903 5903 5907 5910 5910 5911 5911 5909 5910 5909 5911 5913 5911 5909 5904 5899 5896 5897 5895 5891 5889 5887 5885 5882 5880 5878 5876 5873 5870 5868 5863 5860 5856 5853 5851 5848 5845 5842 5840 5837 5834 5832 5829
5888 5890 5895 5898 5900 5901 5902 5901 5901 5899 5900 5900 5899 5899 5897 5889 5884 5886 5886 5885 5881 5880 5878 5876 5873 5872 5870 5866 5864 5861 5858 5854 5852 5848 5844 5841 5839 5836 5833 5831 5827 5824 5820
5886 5886 5884 5887 5888 5889 5891 5890 5890 5890 5890 5890 5889 5887 5885 5882 5878 5880 5878 5878 5873 5872 5870 5869 5867 5865 5863 5859 5856 5854 5852 5850 5847 5843 5838 5835 5832 5829 5827 5823 5820 5816 5811
5877 5878 5877 5879 5879 5879 5880 5881 5881 5882 5883 5881 5882 5879 5873 5869 5867 5869 5870 5869 5866 5864 5861 5861 5860 5858 5856 5853 5850 5848 5845 5842 5839 5837 5833 5829 5826 5823 5820 5815 5811 5806 5802